This is the latest recevied weather packets stored in our database for station/object KE8AFF-13. If no packets are shown the sender has not sent any weather packets the latest 10 day(s).
| Time | Temp. | Humidity | Pressure | Rain* | Wind** | Luminosity | Snow |
|---|---|---|---|---|---|---|---|
| 1777499541 | 12.22° C | 90% | 1009.1 hPa | 0 mm | - | 90 W/m² | - |
| 1777499240 | 12.22° C | 90% | 1009.3 hPa | 0 mm | - | 53 W/m² | - |
| 1777498936 | 12.22° C | 91% | 1009.1 hPa | 0 mm | - | 52 W/m² | - |
| 1777498633 | 12.78° C | 91% | 1009 hPa | 0 mm | - | 58 W/m² | - |
| 1777498328 | 12.78° C | 90% | 1008.7 hPa | 0 mm | - | 78 W/m² | - |
| 1777498027 | 12.78° C | 90% | 1008.8 hPa | 0 mm | - | 160 W/m² | - |
| 1777497723 | 12.78° C | 90% | 1008.9 hPa | 0 mm | - | 170 W/m² | - |
| 1777497420 | 12.78° C | 89% | 1008.8 hPa | 0 mm | - | 111 W/m² | - |
| 1777497115 | 13.33° C | 87% | 1008.8 hPa | 0 mm | - | 238 W/m² | - |
| 1777496813 | 13.33° C | 87% | 1008.8 hPa | 0 mm | - | 213 W/m² | - |
| 1777496509 | 12.78° C | 89% | 1008.9 hPa | 0 mm | - | 556 W/m² | - |
| 1777496206 | 12.78° C | 90% | 1009.1 hPa | 0 mm | - | 552 W/m² | - |
| 1777495901 | 12.78° C | 90% | 1008.8 hPa | 0 mm | - | 240 W/m² | - |
| 1777495592 | 12.78° C | 92% | 1009 hPa | 0 mm | - | 286 W/m² | - |
| 1777495288 | 12.22° C | 92% | 1008.8 hPa | 0 mm | - | 369 W/m² | - |
| 1777494986 | 12.22° C | 92% | 1008.9 hPa | 0 mm | - | 211 W/m² | - |
| 1777494683 | 12.22° C | 92% | 1009 hPa | 0 mm | - | 196 W/m² | - |
| 1777494380 | 12.22° C | 93% | 1009.1 hPa | 0 mm | - | 142 W/m² | - |
| 1777494076 | 12.22° C | 92% | 1009.1 hPa | 0 mm | - | 103 W/m² | - |
| 1777493774 | 12.22° C | 93% | 1009.1 hPa | 0 mm | - | 106 W/m² | - |
| 1777493472 | 12.22° C | 93% | 1008.9 hPa | 0 mm | - | 106 W/m² | - |
| 1777493168 | 12.22° C | 93% | 1009 hPa | 0 mm | - | 163 W/m² | - |
| 1777492864 | 12.78° C | 93% | 1009 hPa | 0 mm | - | 179 W/m² | - |
| 1777492561 | 12.22° C | 93% | 1009 hPa | 0 mm | - | 134 W/m² | - |
| 1777492256 | 12.22° C | 93% | 1008.9 hPa | 0 mm | - | 165 W/m² | - |
* Rain latest hour (hover to see other rain measurements)
** Current wind speed in m/s (hover to see current wind gust speed)